| time (UTC) | temp F | wind direction | speed MPH | gust MPH | rain 1hr in | rain 24hr in | rain mn in | humidity % | barometer mb |
| 20260504100103 | 45 | 159 | 0.0 | 0.0 | 0.00 | 0.00 | 0.00 | 75 | 1012.6 |
| 20260504090112 | 46 | 0 | 0.0 | 1.0 | 0.00 | 0.00 | 0.00 | 75 | 1013.2 |
| 20260504081558 | 46 | 0 | 0.0 | 0.0 | 0.00 | 0.00 | 0.00 | 77 | 1013.3 |
| 20260504044620 | 49 | 0 | 0.0 | 2.0 | 0.00 | 0.00 | 0.00 | 77 | 1014.8 |
| 20260504043057 | 49 | 0 | 0.0 | 1.0 | 0.00 | 0.00 | 0.00 | 75 | 1014.9 |
| 20260504041556 | 49 | 0 | 0.0 | 0.0 | 0.00 | 0.00 | 0.00 | 72 | 1015.0 |
| 20260504040112 | 49 | 0 | 0.0 | 2.0 | 0.00 | 0.00 | 0.00 | 70 | 1014.7 |
| 20260504034607 | 49 | 0 | 0.0 | 0.0 | 0.00 | 0.00 | 0.00 | 70 | 1014.8 |
| 20260504033057 | 49 | 0 | 0.0 | 0.0 | 0.00 | 0.00 | 0.00 | 69 | 1014.7 |
| 20260504031559 | 49 | 0 | 0.0 | 1.0 | 0.00 | 0.00 | 0.00 | 69 | 1014.6 |
| 20260504030057 | 49 | 0 | 0.0 | 1.0 | 0.00 | 0.00 | 0.00 | 68 | 1014.5 |
| 20260504024600 | 48 | 0 | 0.0 | 1.0 | 0.00 | 0.00 | 0.00 | 68 | 1014.6 |
| 20260504023057 | 48 | 0 | 0.0 | 1.0 | 0.00 | 0.00 | 0.00 | 67 | 1014.5 |
| 20260504021556 | 49 | 0 | 0.0 | 1.0 | 0.00 | 0.00 | 0.00 | 66 | 1014.3 |
| 20260504020057 | 49 | 0 | 0.0 | 1.0 | 0.00 | 0.00 | 0.00 | 64 | 1014.3 |
| 20260504014559 | 49 | 0 | 0.0 | 2.0 | 0.00 | 0.00 | 0.00 | 63 | 1014.3 |
| 20260504013113 | 50 | 305 | 0.0 | 2.0 | 0.00 | 0.00 | 0.00 | 60 | 1014.2 |
| 20260504011603 | 51 | 290 | 0.0 | 2.0 | 0.00 | 0.00 | 0.00 | 58 | 1014.4 |
| 20260504010105 | 52 | 271 | 0.0 | 2.0 | 0.00 | 0.00 | 0.00 | 56 | 1014.3 |
| 20260504004609 | 53 | 0 | 0.0 | 2.0 | 0.00 | 0.00 | 0.00 | 52 | 1014.1 |
| 20260504003057 | 54 | 245 | 0.0 | 2.0 | 0.00 | 0.00 | 0.00 | 49 | 1014.2 |
| 20260504001558 | 57 | 0 | 0.0 | 1.0 | 0.00 | 0.00 | 0.00 | 44 | 1014.0 |
| 20260504000114 | 58 | 0 | 0.0 | 1.0 | 0.00 | 0.00 | 0.00 | 42 | 1014.0 |
| 20260503234559 | 58 | 0 | 0.0 | 1.0 | 0.00 | 0.00 | 0.00 | 41 | 1014.0 |
| 20260503233101 | 59 | 88 | 0.0 | 3.0 | 0.00 | 0.00 | 0.00 | 35 | 1014.2 |
| 20260503231556 | 60 | 0 | 0.0 | 4.0 | 0.00 | 0.00 | 0.00 | 32 | 1014.4 |
| 20260503224558 | 61 | 94 | 0.0 | 8.0 | 0.00 | 0.00 | 0.00 | 36 | 1014.5 |
| 20260503223057 | 61 | 96 | 0.0 | 4.0 | 0.00 | 0.00 | 0.00 | 33 | 1014.5 |
| 20260503221558 | 62 | 232 | 0.0 | 5.0 | 0.00 | 0.00 | 0.00 | 31 | 1014.4 |
| 20260503220122 | 62 | 117 | 1.0 | 8.0 | 0.00 | 0.00 | 0.00 | 33 | 1014.7 |
| 20260503214604 | 64 | 124 | 1.0 | 4.0 | 0.00 | 0.00 | 0.00 | 34 | 1014.6 |
| 20260503213108 | 64 | 79 | 1.0 | 4.0 | 0.00 | 0.00 | 0.00 | 31 | 1014.6 |
| 20260503211557 | 63 | 175 | 1.0 | 4.0 | 0.00 | 0.00 | 0.00 | 34 | 1014.8 |
| 20260503210058 | 64 | 0 | 2.0 | 4.0 | 0.00 | 0.00 | 0.00 | 28 | 1015.0 |
| 20260503204603 | 64 | 31 | 2.0 | 9.0 | 0.00 | 0.00 | 0.00 | 32 | 1015.1 |
| 20260503203101 | 63 | 116 | 2.0 | 9.0 | 0.00 | 0.00 | 0.00 | 34 | 1015.4 |
| 20260503201557 | 62 | 0 | 1.0 | 6.0 | 0.00 | 0.00 | 0.00 | 31 | 1015.7 |
| 20260503194603 | 62 | 352 | 1.0 | 9.0 | 0.00 | 0.00 | 0.00 | 32 | 1016.2 |
| 20260503193108 | 62 | 317 | 2.0 | 8.0 | 0.00 | 0.00 | 0.00 | 31 | 1016.6 |
| 20260503191602 | 61 | 0 | 1.0 | 7.0 | 0.00 | 0.00 | 0.00 | 31 | 1016.8 |
| 20260503190056 | 62 | 114 | 1.0 | 6.0 | 0.00 | 0.00 | 0.00 | 35 | 1017.1 |
| 20260503184605 | 62 | 0 | 0.0 | 7.0 | 0.00 | 0.00 | 0.00 | 38 | 1017.6 |
| 20260503183058 | 60 | 61 | 2.0 | 8.0 | 0.00 | 0.00 | 0.00 | 34 | 1017.8 |
| 20260503181602 | 61 | 35 | 1.0 | 9.0 | 0.00 | 0.00 | 0.00 | 32 | 1017.8 |
| 20260503180111 | 59 | 268 | 1.0 | 8.0 | 0.00 | 0.00 | 0.00 | 34 | 1017.9 |
| 20260503174558 | 61 | 87 | 1.0 | 5.0 | 0.00 | 0.00 | 0.00 | 33 | 1018.2 |
| 20260503173111 | 60 | 257 | 1.0 | 9.0 | 0.00 | 0.00 | 0.00 | 36 | 1018.1 |
| 20260503171556 | 59 | 0 | 1.0 | 10.0 | 0.00 | 0.00 | 0.00 | 39 | 1018.2 |
| 20260503170111 | 58 | 0 | 1.0 | 6.0 | 0.00 | 0.00 | 0.00 | 36 | 1018.7 |
| 20260503160118 | 55 | 128 | 1.0 | 8.0 | 0.00 | 0.00 | 0.00 | 40 | 1019.5 |
| 20260503150104 | 52 | 117 | 1.0 | 6.0 | 0.00 | 0.00 | 0.00 | 46 | 1019.9 |
| 20260503110106 | 32 | 0 | 0.0 | 0.0 | 0.00 | 0.00 | 0.00 | 87 | 1018.5 |